Regional Weather Roundup
Issued by NWS Charleston, SC

Current Version | Previous Version | Graphics & Text | Print | Product List | Glossary On
Versions: 1 2 3 4 5 6 7 8 9 10 11 12 13 14 15 16 17 18 19 20 21 22 23 24 25 26 27 28 29 30 31 32 33 34 35 36 37 38 39 40 41 42 43 44 45 46 47 48 49 50
000
ASUS42 KCHS 242027
RWRCHS

Regional Weather Roundup
National Weather Service Charleston SC
400 PM EDT THU MAY 24 2018

NOTE: "fair" indicates few or no clouds below 12,000 feet with no
significant weather and/or obstructions to visibility.

Not all stations are quality controlled. Use data with caution,
especially dewpoint observations.

SCZ027-030-031-034>040-042>050-242100-
...Southeast South Carolina...

CITY           SKY/WX    TMP DP  RH WIND       PRES   REMARKS
N Charleston   PTSUNNY   76  73  91 SE7       30.08S
Waterfront Prk   N/A     77  74  91 SE5       29.93S
Mount Pleasant FAIR      79  73  83 SE5       30.08F
Johns Island   LGT RAIN  77  73  88 SE6       30.08F
Pinopolis        N/A     75  72  88 VRB3      30.02F
Moncks Corner  FAIR      77  70  78 S5        30.07F
Summerville    MOCLDY    73  70  88 SE3       30.09S THUNDER
Beaufort MCAS  LGT RAIN  76  75  97 NE3       30.08S
Beaufort Arpt  MOCLDY    77  72  83 SE3       30.08S THUNDER
Hilton Head Is PTSUNNY   77  73  88 SE6       30.09S
Walterboro     RAIN      72  72 100 SE6       30.09R
Allendale      TSTM      73  72  94 SE15G22   30.05R

...Southern Midlands and Pee Dee...

CITY           SKY/WX    TMP DP  RH WIND       PRES   REMARKS
Georgetown     FAIR      77  77 100 SE6       30.09F
Kingstree      TSTM      73  72  94 SE6       30.08S
Orangeburg     RAIN      73  70  90 NE6       30.07S
Barnwell       MOCLDY    81  73  78 NE13      30.06R
Aiken          TSTM      72  72 100 E6        30.10S
Manning        FAIR      70  68  94 CALM      30.07F
Columbia       PTSUNNY   80  73  79 SE9       30.05F
Sumter         PTSUNNY   78  68  69 SE5       30.05S
Florence       FAIR      84  70  62 S13G18    30.07F
Myrtle Beach   FAIR      78  72  81 SE9       30.10F
N Myrtle Beach FAIR      79  72  79 E13       30.09F

$$

GAZ063-065-086>088-099>101-113>116-118-119-134>141-150-242100-
...Southeast Georgia...

CITY           SKY/WX    TMP DP  RH WIND       PRES   REMARKS
Savannah Arpt  TSTM      73  71  93 NE8       30.07S
Hunter AAF     TSTM      79  72  78 E7        30.04
Fort Stewart   FAIR      83  69  63 S7        30.02F
Statesboro     TSTM      74  69  86 E12       30.04R
Sylvania       CLOUDY    84  73  69 S6        30.04S THUNDER HX  91
Claxton        TSTM      74  72  92 W15       30.02F

...CSRA, Central and far Southeast Georgia...

CITY           SKY/WX    TMP DP  RH WIND       PRES   REMARKS
Thomson        PTSUNNY   76  73  87 CALM      30.09F
Augusta-Bush   PTSUNNY   85  71  63 SW5       30.02F THUNDER HX  90
Augusta-Daniel CLOUDY    83  73  72 E16G25    30.04F THUNDER
Swainsboro     RAIN      72  72 100 CALM      30.07F
Vidalia        RAIN      73  68  83 CALM      30.06S
Eastman        TSTM      73  65  77 CALM      30.08F
Hazlehurst     TSTM      75  71  87 CALM      30.06R
Alma           PTSUNNY   79  71  76 N17G26    30.03F THUNDER
Waycross       PTSUNNY   89  67  49 W6        30.01F HX  91
Jesup          LGT RAIN  78  73  83 CALM      30.03F
Baxley         CLOUDY    73  73 100 NW13G18   30.05R THUNDER
Brunswick      LGT RAIN  81  70  69 SE7       30.05F
Saint Simons   FAIR      82  74  76 SE13      30.05F

$$

SCZ027-028-034-036>038-045-046-048>050-GAZ119-141-242100-
...Lake and Supplemental Coastal Observations...

STATION/POSITION TIME  TEMP    WIND        PRES    WAVE   SWELL
                       AIR SEA DIR/SP/G            HT/PER HT/PER/DIR
                 (UTC) (F)     (DEG/KT/KT) (MB)    (FT/S) (FT/S/D)
Winyah Bay       1945   78     140/  5     1019.0F
Lake Murray      1920   82     150/  5/  8 1017.3
ACE Basin NERRS  1945   76     120/  1     1019.0R
Fort Pulaski     2000   78 79  150/  8/ 11 1018.7
Sapelo Island    2000   80     140/  6     1017.0

$$

ANZ835-935-AMZ111-154-330-350-352-354-370-450-454-472-242100-
...C-MAN and Buoy Observations...

STATION/POSITION TIME  TEMP    WIND        PRES    WAVE   SWELL
                       AIR SEA DIR/SP/G            HT/PER HT/PER/DIR
                 (UTC) (F)     (DEG/KT/KT) (MB)    (FT/S) (FT/S/D)
Buoy 41004       2000      76  140/  6/  8 1018.8
Buoy 41008       1950   77 78  170/ 12/ 14 1017.3F   2/ 8   2/120/ 8
Folly Beach CMAN 2000   77     150/  7/  8 1019.6R
Capers Nearshore 2008   77 79  170/  8/ 10 1019.6S
Fripp Nearshore  2008   77 79  160/ 10/ 14 1018.2R


STATION/POSITION TIME  TEMP    WIND        PRES    WAVE   SWELL
                       AIR SEA DIR/SP/G            HT/PER HT/PER/DIR
                 (UTC) (F)     (DEG/KT/KT) (MB)    (FT/S) (FT/S/D)
5E St. Marys GA  2000      78                N/A     2/ 8
Frying Pan Buoy  2010   75 78   80/ 12/ 16 1019.4
Buoy 41025       2010   74 77   30/ 10/ 12 1020.8
Cape Lookout NC  2000           60/  9/ 10 1020.8F
Buoy 41002       2010      79   30/  8/ 14 1019.1
Buoy 41010       2010   78 80  100/  8/ 10 1019.0
St Augustine FL  2000   78 81  140/ 12/ 13 1017.9F


$$




USA.gov is the U.S. government's official web portal to all federal, state and local government web resources and services.